Satellite: OKEAN-4
Catalog number: 23317
Epoch time:      09168.70704251
Element set:     937
Inclination:      082.5394 deg
RA of node:       334.0006 deg
Eccentricity:    0.0022607
Arg of perigee:   007.3533 deg
Mean anomaly:     352.8000 deg
Mean motion:   14.82703638 rev/day
Decay rate:       2.34e-06 rev/day^2
Epoch rev:           79244
Checksum:              279

Satellite: NOAA-14
Catalog number: 23455
Epoch time:      09168.87841558
Element set:    0656
Inclination:      098.9087 deg
RA of node:       246.5559 deg
Eccentricity:    0.0009412
Arg of perigee:   183.6279 deg
Mean anomaly:     176.4808 deg
Mean motion:   14.13763244 rev/day
Decay rate:      -2.03e-06 rev/day^2
Epoch rev:           74602
Checksum:              344

Satellite: NOAA-15
Catalog number: 25338
Epoch time:      09168.89569545
Element set:    0968
Inclination:      098.5841 deg
RA of node:       158.0863 deg
Eccentricity:    0.0011585
Arg of perigee:   059.4543 deg
Mean anomaly:     300.7749 deg
Mean motion:   14.24766487 rev/day
Decay rate:       -5.0e-08 rev/day^2
Epoch rev:           57687
Checksum:              371

Satellite: RESURS
Catalog number: 25394
Epoch time:      09168.72220706
Element set:    0253
Inclination:      098.3406 deg
RA of node:       201.0433 deg
Eccentricity:    0.0000848
Arg of perigee:   169.3851 deg
Mean anomaly:     190.7346 deg
Mean motion:   14.24183940 rev/day
Decay rate:       -3.7e-07 rev/day^2
Epoch rev:           56847
Checksum:              296

Satellite: FENGYUN1
Catalog number: 25730
Epoch time:      09168.92193744
Element set:    0834
Inclination:      098.7565 deg
RA of node:       139.0664 deg
Eccentricity:    0.0019247
Arg of perigee:   215.9169 deg
Mean anomaly:     144.0708 deg
Mean motion:   14.07912222 rev/day
Decay rate:      -7.99e-06 rev/day^2
Epoch rev:           52042
Checksum:              323

Satellite: OKEAN-0
Catalog number: 25860
Epoch time:      09168.85055746
Element set:    0707
Inclination:      097.7855 deg
RA of node:       150.0036 deg
Eccentricity:    0.0001359
Arg of perigee:   107.6517 deg
Mean anomaly:     252.4841 deg
Mean motion:   14.73576986 rev/day
Decay rate:        1.9e-07 rev/day^2
Epoch rev:           53324
Checksum:              320

Satellite: NOAA-16
Catalog number: 26536
Epoch time:      09168.92986186
Element set:    0445
Inclination:      099.1762 deg
RA of node:       172.6132 deg
Eccentricity:    0.0009629
Arg of perigee:   281.4643 deg
Mean anomaly:     078.5435 deg
Mean motion:   14.12521602 rev/day
Decay rate:        4.5e-07 rev/day^2
Epoch rev:           45040
Checksum:              314

Satellite: NOAA-17
Catalog number: 27453
Epoch time:      09168.91397125
Element set:    0452
Inclination:      098.4837 deg
RA of node:       227.9589 deg
Eccentricity:    0.0012703
Arg of perigee:   119.4006 deg
Mean anomaly:     240.8441 deg
Mean motion:   14.24070961 rev/day
Decay rate:       1.49e-06 rev/day^2
Epoch rev:           36285
Checksum:              321

Satellite: NOAA-18
Catalog number: 28654
Epoch time:      09168.89788291
Element set:    0942
Inclination:      098.9072 deg
RA of node:       112.1310 deg
Eccentricity:    0.0014484
Arg of perigee:   005.1210 deg
Mean anomaly:     355.0144 deg
Mean motion:   14.11265430 rev/day
Decay rate:       4.01e-06 rev/day^2
Epoch rev:           21005
Checksum:              271

Satellite: NOAA-19
Catalog number: 33591
Epoch time:      09168.73620293
Element set:    0145
Inclination:      098.7469 deg
RA of node:       114.4827 deg
Eccentricity:    0.0013202
Arg of perigee:   240.1374 deg
Mean anomaly:     119.8473 deg
Mean motion:   14.10965226 rev/day
Decay rate:       -3.0e-08 rev/day^2
Epoch rev:           01851
Checksum:              296

/EX
SB KEPS @ AMSAT  $ORB09169.M
Orbital Elements  09169.MISC

HR AMSAT ORBITAL ELEMENTS FOR MANNED AND MISCELLANEOUS SATELLITES
FROM WA5QGD FORT WORTH,TX June 18, 2009
Send Subscribe/unsubscribe to KEPS at 
http://www.amsat.org/mailman/listinfo/keps
BID: ORB09169.M
TO ALL RADIO AMATEURS BT

Satellite: HUBBLE
Catalog number: 20580
Epoch time:      09168.24607405
Element set:    0409
Inclination:      028.4682 deg
RA of node:       101.9284 deg
Eccentricity:    0.0003301
Arg of perigee:   281.8128 deg
Mean anomaly:     078.2090 deg
Mean motion:   15.00809493 rev/day
Decay rate:       2.82e-06 rev/day^2
Epoch rev:           84986
Checksum:              293

Satellite: ISS
Catalog number: 25544
Epoch time:      09168.89338167
Element set:    0058
Inclination:      051.6413 deg
RA of node:       303.2759 deg
Eccentricity:    0.0008853
Arg of perigee:   122.3216 deg
Mean anomaly:     021.0594 deg
Mean motion:   15.73787424 rev/day
Decay rate:     1.3743e-04 rev/day^2
Epoch rev:           60606
Checksum:              304

Satellite: CO-58
Catalog number: 28895
Epoch time:      09168.40667934
Element set:    0331
Inclination:      098.0597 deg
RA of node:       059.0173 deg
Eccentricity:    0.0017822
Arg of perigee:   351.4463 deg
Mean anomaly:     008.6403 deg
Mean motion:   14.59774683 rev/day
Decay rate:       -4.3e-07 rev/day^2
Epoch rev:           19376
Checksum:              344

